Regional Weather Roundup
Issued by NWS

Home | Current Version | Previous Version | Text Only | Print | Product List | Glossary On
Versions: 1 2 3 4 5 6 7 8 9 10 11 12 13 14 15 16 17 18 19 20 21 22 23 24 25 26 27 28 29 30 31 32 33 34 35 36 37 38 39 40 41 42 43 44 45 46 47 48 49 50
000
ASUS43 KIND 271709
RWRIN

WEATHER ROUNDUP FOR INDIANA
NATIONAL WEATHER SERVICE INDIANAPOLIS IN
100 PM EDT MON APR 27 2015

NOTE: "FAIR" INDICATES FEW OR NO CLOUDS BELOW 12,000 FEET WITH NO
SIGNIFICANT WEATHER AND/OR OBSTRUCTIONS TO VISIBILITY.

* - STATION DOES NOT REPORT WEATHER SUCH AS PRECIPITATION OR FOG.

+ - STATION NOT QUALITY CONTROLLED BY THE NATIONAL WEATHER SERVICE.
    USE DATA WITH CAUTION...ESPECIALLY DEWPOINT AND RELATIVE
    HUMIDITY OBSERVATIONS.

INZ001>003-010>013-019-020-271800-
NORTHWEST INDIANA

CITY           SKY/WX    TMP DP  RH WIND       PRES   REMARKS
GARY /AIRPORT/ MOSUNNY   50  32  50 N17G32    30.14R
KNOX *+        PTSUNNY   50  23  34 N18G26    30.08S
LA PORTE +     SUNNY     50  38  62 N18G24    30.10S
MICHIGAN CITY+ MOSUNNY   45  32  61 N13       30.12R
MONTICELLO +   CLOUDY    53  37  54 N20G26    30.05S
RENSSELAER +   PTSUNNY   50  37  62 N20G26    30.09
VALPARAISO     MOSUNNY   49  35  58 N16G26    30.11R

$$

LMZ046-743>745-271800-
SOUTHERN LAKE MICHIGAN

STATION/POSITION TIME  TEMP    WIND        PRES    WAVE
                       AIR SEA DIR/SP/G            HT
                 (UTC) (F)     (DEG/KT/KT) (MB)    (FT)
BURNS HARBOR     1700   42     350/ 18/ 21 1020.7S
MICHIGAN CITY    1700   42     320/ 20/ 23   N/A
5NW MICH CITY    1700   41 45  350/ 17/ 21   N/A     4

$$

INZ004-005-014>016-021>024-271800-
NORTH CENTRAL INDIANA

CITY           SKY/WX    TMP DP  RH WIND       PRES   REMARKS
ELKHART        PTSUNNY   50  32  50 NW9       30.06R
GOSHEN         CLOUDY    52  38  58 N15       30.04R
LOGANSPORT +   CLOUDY    52  32  46 NW14G22   30.06R
PERU/GRISSOM   CLOUDY    54  37  53 NW16G24   30.03R
ROCHESTER +    PTSUNNY   54  36  50 NW14G22   30.05S
SOUTH BEND     MOSUNNY   51  37  58 NW14G24   30.08S
WARSAW +       CLOUDY    52  36  54 N12       30.04S

$$

INZ006>009-017-018-025>027-271800-
NORTHEAST INDIANA

CITY           SKY/WX    TMP DP  RH WIND       PRES   REMARKS
ANGOLA *+      CLOUDY    48  36  61 N7        30.03R
AUBURN +       CLOUDY    52  34  50 NW9       30.03R
FORT WAYNE     PTSUNNY   53  37  54 N6G16     30.02S
HUNTINGTON +   CLOUDY    52  37  55 N12       30.02S

$$

INZ028-029-035-036-043>045-051>053-271800-
WEST CENTRAL INDIANA

CITY           SKY/WX    TMP DP  RH WIND       PRES   REMARKS
CRAWFORDSVL +  MOSUNNY   52  31  44 N15G26    30.06R
GREENCASTLE +  SUNNY     54  32  43 N12G17    30.06S
LAFAYETTE      PTSUNNY   51  34  52 N17G28    30.06F
TERRE HAUTE    SUNNY     56  38  50 N9        30.07S

$$

INZ030>032-037>040-046>048-054>057-064-065-271800-
CENTRAL INDIANA

CITY           SKY/WX    TMP DP  RH WIND       PRES   REMARKS
ANDERSON       MOSUNNY   54  34  47 N12       30.02
CP ATTERBURY + SUNNY     55  36  47 N8G18     30.04R
FISHERS *+     MOSUNNY   55  43  62 NW13      30.03R
FRANKFORT +    PTSUNNY   52  39  60 NW20G25   30.06S
GREENWOOD *+   SUNNY     55  34  44 NW7       30.04R
INDIANAPOLIS   MOSUNNY   56  38  50 NW14      30.03R
-EAGLE CREEK   SUNNY     55  38  52 NW15      30.03R
KOKOMO *+      MOSUNNY   54  37  54 N17G23    30.03S
MARION +       PTSUNNY   52  36  53 N14       30.02F
MT COMFORT *+  SUNNY     55  30  38 N16       30.02S
SHELBYVILLE    SUNNY     58  39  49 NW13      30.01S
ZIONSVILLE +   MOSUNNY   54  38  54 N14G30    30.04S

$$

INZ033-034-041-042-049-050-058-059-271800-
EAST CENTRAL INDIANA

CITY           SKY/WX    TMP DP  RH WIND       PRES   REMARKS
MUNCIE         MOSUNNY   54  38  54 N13       30.01R

$$

INZ060-061-067>069-081>083-085>088-271800-
SOUTHWEST INDIANA

CITY           SKY/WX    TMP DP  RH WIND       PRES   REMARKS
EVANSVILLE     MOSUNNY   58  36  43 MISG      30.07F
HUNTINGBURG *+ SUNNY     57  36  44 NW7       30.06F
WASHINGTON +   SUNNY     57  30  36 N10       30.05F

$$

INZ062-063-066-070>080-084-089>092-271800-
SOUTH CENTRAL AND SOUTHEAST INDIANA

CITY           SKY/WX    TMP DP  RH WIND       PRES   REMARKS
BEDFORD +      SUNNY     57  32  38 N6        30.04F
BLOOMINGTON    SUNNY     58  36  43 N15       30.04S
MADISON *+     SUNNY     57  32  38 W5        30.04S
NORTH VERNON + SUNNY     57  39  51 NW9       30.02F
SEYMOUR +      SUNNY     59  36  41 N8        30.03S

$$



USA.gov is the U.S. government's official web portal to all federal, state and local government web resources and services.